Year,Month,Day,Hour,Minute,Value (Times are PST for insolation in W/m^2)
2021,01,30,00,00,0.00
2021,01,30,00,01,0.00
2021,01,30,00,02,0.00
2021,01,30,00,03,0.00
2021,01,30,00,04,0.00
2021,01,30,00,05,0.00
2021,01,30,00,06,0.00
2021,01,30,00,07,0.00
2021,01,30,00,08,0.00
2021,01,30,00,09,0.00
2021,01,30,00,10,0.00
2021,01,30,00,11,0.00
2021,01,30,00,12,0.00
2021,01,30,00,13,0.00
2021,01,30,00,14,0.00
2021,01,30,00,15,0.00
2021,01,30,00,16,0.00
2021,01,30,00,17,0.00
2021,01,30,00,18,0.00
2021,01,30,00,19,0.00
2021,01,30,00,20,0.00
2021,01,30,00,21,0.00
2021,01,30,00,22,0.00
2021,01,30,00,23,0.00
2021,01,30,00,24,0.00
2021,01,30,00,25,0.00
2021,01,30,00,26,0.00
2021,01,30,00,27,0.00
2021,01,30,00,28,0.00
2021,01,30,00,29,0.00
2021,01,30,00,30,0.00
2021,01,30,00,31,0.00
2021,01,30,00,32,0.00
2021,01,30,00,33,0.00
2021,01,30,00,34,0.00
2021,01,30,00,35,0.00
2021,01,30,00,36,0.00
2021,01,30,00,37,0.00
2021,01,30,00,38,0.00
2021,01,30,00,39,0.00
2021,01,30,00,40,0.00
2021,01,30,00,41,0.00
2021,01,30,00,42,0.00
2021,01,30,00,43,0.00
2021,01,30,00,44,0.00
2021,01,30,00,45,0.00
2021,01,30,00,46,0.00
2021,01,30,00,47,0.00
2021,01,30,00,48,0.00
2021,01,30,00,49,0.00
2021,01,30,00,50,0.00
2021,01,30,00,51,0.00
2021,01,30,00,52,0.00
2021,01,30,00,53,0.00
2021,01,30,00,54,0.00
2021,01,30,00,55,0.00
2021,01,30,00,56,0.00
2021,01,30,00,57,0.00
2021,01,30,00,58,0.00
2021,01,30,00,59,0.00
2021,01,30,01,00,0.00
2021,01,30,01,01,0.00
2021,01,30,01,02,0.00
2021,01,30,01,03,0.00
2021,01,30,01,04,0.00
2021,01,30,01,05,0.00
2021,01,30,01,06,0.00
2021,01,30,01,07,0.00
2021,01,30,01,08,0.00
2021,01,30,01,09,0.00
2021,01,30,01,10,0.00
2021,01,30,01,11,0.00
2021,01,30,01,12,0.00
2021,01,30,01,13,0.00
2021,01,30,01,14,0.00
2021,01,30,01,15,0.00
2021,01,30,01,16,0.00
2021,01,30,01,17,0.00
2021,01,30,01,18,0.00
2021,01,30,01,19,0.00
2021,01,30,01,20,0.00
2021,01,30,01,21,0.00
2021,01,30,01,22,0.00
2021,01,30,01,23,0.00
2021,01,30,01,24,0.00
2021,01,30,01,25,0.00
2021,01,30,01,26,0.00
2021,01,30,01,27,0.00
2021,01,30,01,28,0.00
2021,01,30,01,29,0.00
2021,01,30,01,30,0.00
2021,01,30,01,31,0.00
2021,01,30,01,32,0.00
2021,01,30,01,33,0.00
2021,01,30,01,34,0.00
2021,01,30,01,35,0.00
2021,01,30,01,36,0.00
2021,01,30,01,37,0.00
2021,01,30,01,38,0.00
2021,01,30,01,39,0.00
2021,01,30,01,40,0.00
2021,01,30,01,41,0.00
2021,01,30,01,42,0.00
2021,01,30,01,43,0.00
2021,01,30,01,44,0.00
2021,01,30,01,45,0.00
2021,01,30,01,46,0.00
2021,01,30,01,47,0.00
2021,01,30,01,48,0.00
2021,01,30,01,49,0.00
2021,01,30,01,50,0.00
2021,01,30,01,51,0.00
2021,01,30,01,52,0.00
2021,01,30,01,53,0.00
2021,01,30,01,54,0.00
2021,01,30,01,55,0.00
2021,01,30,01,56,0.00
2021,01,30,01,57,0.00
2021,01,30,01,58,0.00
2021,01,30,01,59,0.00
2021,01,30,02,00,0.00
2021,01,30,02,01,0.00
2021,01,30,02,02,0.00
2021,01,30,02,03,0.00
2021,01,30,02,04,0.00
2021,01,30,02,05,0.00
2021,01,30,02,06,0.00
2021,01,30,02,07,0.00
2021,01,30,02,08,0.00
2021,01,30,02,09,0.00
2021,01,30,02,10,0.00
2021,01,30,02,11,0.00
2021,01,30,02,12,0.00
2021,01,30,02,13,0.00
2021,01,30,02,14,0.00
2021,01,30,02,15,0.00
2021,01,30,02,16,0.00
2021,01,30,02,17,0.00
2021,01,30,02,18,0.00
2021,01,30,02,19,0.00
2021,01,30,02,20,0.00
2021,01,30,02,21,0.00
2021,01,30,02,22,0.00
2021,01,30,02,23,0.00
2021,01,30,02,24,0.00
2021,01,30,02,25,0.00
2021,01,30,02,26,0.00
2021,01,30,02,27,0.00
2021,01,30,02,28,0.00
2021,01,30,02,29,0.00
2021,01,30,02,30,0.00
2021,01,30,02,31,0.00
2021,01,30,02,32,0.00
2021,01,30,02,33,0.00
2021,01,30,02,34,0.00
2021,01,30,02,35,0.00
2021,01,30,02,36,0.00
2021,01,30,02,37,0.00
2021,01,30,02,38,0.00
2021,01,30,02,39,0.00
2021,01,30,02,40,0.00
2021,01,30,02,41,0.00
2021,01,30,02,42,0.00
2021,01,30,02,43,0.00
2021,01,30,02,44,0.00
2021,01,30,02,45,0.00
2021,01,30,02,46,0.00
2021,01,30,02,47,0.00
2021,01,30,02,48,0.00
2021,01,30,02,49,0.00
2021,01,30,02,50,0.00
2021,01,30,02,51,0.00
2021,01,30,02,52,0.00
2021,01,30,02,53,0.00
2021,01,30,02,54,0.00
2021,01,30,02,55,0.00
2021,01,30,02,56,0.00
2021,01,30,02,57,0.00
2021,01,30,02,58,0.00
2021,01,30,02,59,0.00
2021,01,30,03,00,0.00
2021,01,30,03,01,0.00
2021,01,30,03,02,0.00
2021,01,30,03,03,0.00
2021,01,30,03,04,0.00
2021,01,30,03,05,0.00
2021,01,30,03,06,0.00
2021,01,30,03,07,0.00
2021,01,30,03,08,0.00
2021,01,30,03,09,0.00
2021,01,30,03,10,0.00
2021,01,30,03,11,0.00
2021,01,30,03,12,0.00
2021,01,30,03,13,0.00
2021,01,30,03,14,0.00
2021,01,30,03,15,0.00
2021,01,30,03,16,0.00
2021,01,30,03,17,0.00
2021,01,30,03,18,0.00
2021,01,30,03,19,0.00
2021,01,30,03,20,0.00
2021,01,30,03,21,0.00
2021,01,30,03,22,0.00
2021,01,30,03,23,0.00
2021,01,30,03,24,0.00
2021,01,30,03,25,0.00
2021,01,30,03,26,0.00
2021,01,30,03,27,0.00
2021,01,30,03,28,0.00
2021,01,30,03,29,0.00
2021,01,30,03,30,0.00
2021,01,30,03,31,0.00
2021,01,30,03,32,0.00
2021,01,30,03,33,0.00
2021,01,30,03,34,0.00
2021,01,30,03,35,0.00
2021,01,30,03,36,0.00
2021,01,30,03,37,0.00
2021,01,30,03,38,0.00
2021,01,30,03,39,0.00
2021,01,30,03,40,0.00
2021,01,30,03,41,0.00
2021,01,30,03,42,0.00
2021,01,30,03,43,0.00
2021,01,30,03,44,0.00
2021,01,30,03,45,0.00
2021,01,30,03,46,0.00
2021,01,30,03,47,0.00
2021,01,30,03,48,0.00
2021,01,30,03,49,0.00
2021,01,30,03,50,0.00
2021,01,30,03,51,0.00
2021,01,30,03,52,0.00
2021,01,30,03,53,0.00
2021,01,30,03,54,0.00
2021,01,30,03,55,0.00
2021,01,30,03,56,0.00
2021,01,30,03,57,0.00
2021,01,30,03,58,0.00
2021,01,30,03,59,0.00
2021,01,30,04,00,0.00
2021,01,30,04,01,0.00
2021,01,30,04,02,0.00
2021,01,30,04,03,0.00
2021,01,30,04,04,0.00
2021,01,30,04,05,0.00
2021,01,30,04,06,0.00
2021,01,30,04,07,0.00
2021,01,30,04,08,0.00
2021,01,30,04,09,0.00
2021,01,30,04,10,0.00
2021,01,30,04,11,0.00
2021,01,30,04,12,0.00
2021,01,30,04,13,0.00
2021,01,30,04,14,0.00
2021,01,30,04,15,0.00
2021,01,30,04,16,0.00
2021,01,30,04,17,0.00
2021,01,30,04,18,0.00
2021,01,30,04,19,0.00
2021,01,30,04,20,0.00
2021,01,30,04,21,0.00
2021,01,30,04,22,0.00
2021,01,30,04,23,0.00
2021,01,30,04,24,0.00
2021,01,30,04,25,0.00
2021,01,30,04,26,0.00
2021,01,30,04,27,0.00
2021,01,30,04,28,0.00
2021,01,30,04,29,0.00
2021,01,30,04,30,0.00
2021,01,30,04,31,0.00
2021,01,30,04,32,0.00
2021,01,30,04,33,0.00
2021,01,30,04,34,0.00
2021,01,30,04,35,0.00
2021,01,30,04,36,0.00
2021,01,30,04,37,0.00
2021,01,30,04,38,0.00
2021,01,30,04,39,0.00
2021,01,30,04,40,0.00
2021,01,30,04,41,0.00
2021,01,30,04,42,0.00
2021,01,30,04,43,0.00
2021,01,30,04,44,0.00
2021,01,30,04,45,0.00
2021,01,30,04,46,0.00
2021,01,30,04,47,0.00
2021,01,30,04,48,0.00
2021,01,30,04,49,0.00
2021,01,30,04,50,0.00
2021,01,30,04,51,0.00
2021,01,30,04,52,0.00
2021,01,30,04,53,0.00
2021,01,30,04,54,0.00
2021,01,30,04,55,0.00
2021,01,30,04,56,0.00
2021,01,30,04,57,0.00
2021,01,30,04,58,0.00
2021,01,30,04,59,0.00
2021,01,30,05,00,0.00
2021,01,30,05,01,0.00
2021,01,30,05,02,0.00
2021,01,30,05,03,0.00
2021,01,30,05,04,0.00
2021,01,30,05,05,0.00
2021,01,30,05,06,0.00
2021,01,30,05,07,0.00
2021,01,30,05,08,0.00
2021,01,30,05,09,0.00
2021,01,30,05,10,0.00
2021,01,30,05,11,0.00
2021,01,30,05,12,0.00
2021,01,30,05,13,0.00
2021,01,30,05,14,0.00
2021,01,30,05,15,0.00
2021,01,30,05,16,0.00
2021,01,30,05,17,0.00
2021,01,30,05,18,0.00
2021,01,30,05,19,0.00
2021,01,30,05,20,0.00
2021,01,30,05,21,0.00
2021,01,30,05,22,0.00
2021,01,30,05,23,0.00
2021,01,30,05,24,0.00
2021,01,30,05,25,0.00
2021,01,30,05,26,0.00
2021,01,30,05,27,0.00
2021,01,30,05,28,0.00
2021,01,30,05,29,0.00
2021,01,30,05,30,0.00
2021,01,30,05,31,0.00
2021,01,30,05,32,0.00
2021,01,30,05,33,0.00
2021,01,30,05,34,0.00
2021,01,30,05,35,0.00
2021,01,30,05,36,0.00
2021,01,30,05,37,0.00
2021,01,30,05,38,0.00
2021,01,30,05,39,0.00
2021,01,30,05,40,0.00
2021,01,30,05,41,0.00
2021,01,30,05,42,0.00
2021,01,30,05,43,0.00
2021,01,30,05,44,0.00
2021,01,30,05,45,0.00
2021,01,30,05,46,0.00
2021,01,30,05,47,0.00
2021,01,30,05,48,0.00
2021,01,30,05,49,0.00
2021,01,30,05,50,0.00
2021,01,30,05,51,0.00
2021,01,30,05,52,0.00
2021,01,30,05,53,0.00
2021,01,30,05,54,0.00
2021,01,30,05,55,0.00
2021,01,30,05,56,0.00
2021,01,30,05,57,0.00
2021,01,30,05,58,0.00
2021,01,30,05,59,0.00
2021,01,30,06,00,0.00
2021,01,30,06,01,0.00
2021,01,30,06,02,0.00
2021,01,30,06,03,0.00
2021,01,30,06,04,0.00
2021,01,30,06,05,0.00
2021,01,30,06,06,0.00
2021,01,30,06,07,0.00
2021,01,30,06,08,0.00
2021,01,30,06,09,0.00
2021,01,30,06,10,0.00
2021,01,30,06,11,0.00
2021,01,30,06,12,0.00
2021,01,30,06,13,0.00
2021,01,30,06,14,0.00
2021,01,30,06,15,0.00
2021,01,30,06,16,0.00
2021,01,30,06,17,0.00
2021,01,30,06,18,0.00
2021,01,30,06,19,0.00
2021,01,30,06,20,0.00
2021,01,30,06,21,0.00
2021,01,30,06,22,0.00
2021,01,30,06,23,0.00
2021,01,30,06,24,0.00
2021,01,30,06,25,0.00
2021,01,30,06,26,0.00
2021,01,30,06,27,0.00
2021,01,30,06,28,0.00
2021,01,30,06,29,0.00
2021,01,30,06,30,0.00
2021,01,30,06,31,0.00
2021,01,30,06,32,0.00
2021,01,30,06,33,0.00
2021,01,30,06,34,0.00
2021,01,30,06,35,0.00
2021,01,30,06,36,0.00
2021,01,30,06,37,0.00
2021,01,30,06,38,0.00
2021,01,30,06,39,0.00
2021,01,30,06,40,0.00
2021,01,30,06,41,0.00
2021,01,30,06,42,0.00
2021,01,30,06,43,0.00
2021,01,30,06,44,0.00
2021,01,30,06,45,0.00
2021,01,30,06,46,0.00
2021,01,30,06,47,0.00
2021,01,30,06,48,0.00
2021,01,30,06,49,0.00
2021,01,30,06,50,0.00
2021,01,30,06,51,0.00
2021,01,30,06,52,0.00
2021,01,30,06,53,0.00
2021,01,30,06,54,0.00
2021,01,30,06,55,0.00
2021,01,30,06,56,0.00
2021,01,30,06,57,0.00
2021,01,30,06,58,0.00
2021,01,30,06,59,0.00
2021,01,30,07,00,0.00
2021,01,30,07,01,0.00
2021,01,30,07,02,0.00
2021,01,30,07,03,0.00
2021,01,30,07,04,0.00
2021,01,30,07,05,0.00
2021,01,30,07,06,0.00
2021,01,30,07,07,0.00
2021,01,30,07,08,0.00
2021,01,30,07,09,0.00
2021,01,30,07,10,0.00
2021,01,30,07,11,0.00
2021,01,30,07,12,0.00
2021,01,30,07,13,0.00
2021,01,30,07,14,0.00
2021,01,30,07,15,0.00
2021,01,30,07,16,0.00
2021,01,30,07,17,0.00
2021,01,30,07,18,0.00
2021,01,30,07,19,0.00
2021,01,30,07,20,0.00
2021,01,30,07,21,0.00
2021,01,30,07,22,0.00
2021,01,30,07,23,0.00
2021,01,30,07,24,0.00
2021,01,30,07,25,0.00
2021,01,30,07,26,0.00
2021,01,30,07,27,0.00
2021,01,30,07,28,0.00
2021,01,30,07,29,0.00
2021,01,30,07,30,0.00
2021,01,30,07,31,0.00
2021,01,30,07,32,0.00
2021,01,30,07,33,0.00
2021,01,30,07,34,0.00
2021,01,30,07,35,0.00
2021,01,30,07,36,0.00
2021,01,30,07,37,0.00
2021,01,30,07,38,0.00
2021,01,30,07,39,0.00
2021,01,30,07,40,0.00
2021,01,30,07,41,0.00
2021,01,30,07,42,0.00
2021,01,30,07,43,0.00
2021,01,30,07,44,0.00
2021,01,30,07,45,0.00
2021,01,30,07,46,0.00
2021,01,30,07,47,0.00
2021,01,30,07,48,0.00
2021,01,30,07,49,0.00
2021,01,30,07,50,0.00
2021,01,30,07,51,0.00
2021,01,30,07,52,0.00
2021,01,30,07,53,0.00
2021,01,30,07,54,0.00
2021,01,30,07,55,0.00
2021,01,30,07,56,0.00
2021,01,30,07,57,0.00
2021,01,30,07,58,0.00
2021,01,30,07,59,0.00
2021,01,30,08,00,0.00
2021,01,30,08,01,0.00
2021,01,30,08,02,0.00
2021,01,30,08,03,0.00
2021,01,30,08,04,0.00
2021,01,30,08,05,0.00
2021,01,30,08,06,0.00
2021,01,30,08,07,0.00
2021,01,30,08,08,0.00
2021,01,30,08,09,0.00
2021,01,30,08,10,0.00
2021,01,30,08,11,0.00
2021,01,30,08,12,0.00
2021,01,30,08,13,0.00
2021,01,30,08,14,0.00
2021,01,30,08,15,0.00
2021,01,30,08,16,1.20
2021,01,30,08,17,5.00
2021,01,30,08,18,5.00
2021,01,30,08,19,5.00
2021,01,30,08,20,5.00
2021,01,30,08,21,5.00
2021,01,30,08,22,5.00
2021,01,30,08,23,5.00
2021,01,30,08,24,5.00
2021,01,30,08,25,5.00
2021,01,30,08,26,5.00
2021,01,30,08,27,5.00
2021,01,30,08,28,5.00
2021,01,30,08,29,5.00
2021,01,30,08,30,5.50
2021,01,30,08,31,7.00
2021,01,30,08,32,7.00
2021,01,30,08,33,7.00
2021,01,30,08,34,7.00
2021,01,30,08,35,7.00
2021,01,30,08,36,9.20
2021,01,30,08,37,11.00
2021,01,30,08,38,11.30
2021,01,30,08,39,13.00
2021,01,30,08,40,16.40
2021,01,30,08,41,18.70
2021,01,30,08,42,20.80
2021,01,30,08,43,21.20
2021,01,30,08,44,23.00
2021,01,30,08,45,23.70
2021,01,30,08,46,25.00
2021,01,30,08,47,25.60
2021,01,30,08,48,26.00
2021,01,30,08,49,27.80
2021,01,30,08,50,28.20
2021,01,30,08,51,30.00
2021,01,30,08,52,30.80
2021,01,30,08,53,32.00
2021,01,30,08,54,30.70
2021,01,30,08,55,30.00
2021,01,30,08,56,28.30
2021,01,30,08,57,27.80
2021,01,30,08,58,26.00
2021,01,30,08,59,25.60
2021,01,30,09,00,25.50
2021,01,30,09,01,26.00
2021,01,30,09,02,26.00
2021,01,30,09,03,26.00
2021,01,30,09,04,26.00
2021,01,30,09,05,25.80
2021,01,30,09,06,25.00
2021,01,30,09,07,25.00
2021,01,30,09,08,25.00
2021,01,30,09,09,25.00
2021,01,30,09,10,25.00
2021,01,30,09,11,26.00
2021,01,30,09,12,26.50
2021,01,30,09,13,28.70
2021,01,30,09,14,31.00
2021,01,30,09,15,33.90
2021,01,30,09,16,37.90
2021,01,30,09,17,39.00
2021,01,30,09,18,40.20
2021,01,30,09,19,42.00
2021,01,30,09,20,42.00
2021,01,30,09,21,41.00
2021,01,30,09,22,40.00
2021,01,30,09,23,39.30
2021,01,30,09,24,39.90
2021,01,30,09,25,40.50
2021,01,30,09,26,44.70
2021,01,30,09,27,48.40
2021,01,30,09,28,52.50
2021,01,30,09,29,53.40
2021,01,30,09,30,50.10
2021,01,30,09,31,47.30
2021,01,30,09,32,45.80
2021,01,30,09,33,43.50
2021,01,30,09,34,42.00
2021,01,30,09,35,41.10
2021,01,30,09,36,40.00
2021,01,30,09,37,39.20
2021,01,30,09,38,39.00
2021,01,30,09,39,40.20
2021,01,30,09,40,42.00
2021,01,30,09,41,42.00
2021,01,30,09,42,42.00
2021,01,30,09,43,40.80
2021,01,30,09,44,40.00
2021,01,30,09,45,41.80
2021,01,30,09,46,43.70
2021,01,30,09,47,42.00
2021,01,30,09,48,41.30
2021,01,30,09,49,40.00
2021,01,30,09,50,40.00
2021,01,30,09,51,40.00
2021,01,30,09,52,41.80
2021,01,30,09,53,39.70
2021,01,30,09,54,36.50
2021,01,30,09,55,35.00
2021,01,30,09,56,36.90
2021,01,30,09,57,39.00
2021,01,30,09,58,42.70
2021,01,30,09,59,46.60
2021,01,30,10,00,49.00
2021,01,30,10,01,49.50
2021,01,30,10,02,51.00
2021,01,30,10,03,52.00
2021,01,30,10,04,53.60
2021,01,30,10,05,53.30
2021,01,30,10,06,53.00
2021,01,30,10,07,53.00
2021,01,30,10,08,53.20
2021,01,30,10,09,54.80
2021,01,30,10,10,57.00
2021,01,30,10,11,58.00
2021,01,30,10,12,59.50
2021,01,30,10,13,61.80
2021,01,30,10,14,67.40
2021,01,30,10,15,72.50
2021,01,30,10,16,75.70
2021,01,30,10,17,81.00
2021,01,30,10,18,86.00
2021,01,30,10,19,94.60
2021,01,30,10,20,102.90
2021,01,30,10,21,111.30
2021,01,30,10,22,118.50
2021,01,30,10,23,119.20
2021,01,30,10,24,118.00
2021,01,30,10,25,115.50
2021,01,30,10,26,114.00
2021,01,30,10,27,113.10
2021,01,30,10,28,113.10
2021,01,30,10,29,115.40
2021,01,30,10,30,121.70
2021,01,30,10,31,126.50
2021,01,30,10,32,131.70
2021,01,30,10,33,134.80
2021,01,30,10,34,136.70
2021,01,30,10,35,141.10
2021,01,30,10,36,142.50
2021,01,30,10,37,144.70
2021,01,30,10,38,146.00
2021,01,30,10,39,144.80
2021,01,30,10,40,142.50
2021,01,30,10,41,139.50
2021,01,30,10,42,136.80
2021,01,30,10,43,134.00
2021,01,30,10,44,130.20
2021,01,30,10,45,121.60
2021,01,30,10,46,117.50
2021,01,30,10,47,114.60
2021,01,30,10,48,121.60
2021,01,30,10,49,146.20
2021,01,30,10,50,148.00
2021,01,30,10,51,147.30
2021,01,30,10,52,146.00
2021,01,30,10,53,135.20
2021,01,30,10,54,119.40
2021,01,30,10,55,116.00
2021,01,30,10,56,187.80
2021,01,30,10,57,229.50
2021,01,30,10,58,259.30
2021,01,30,10,59,232.00
2021,01,30,11,00,174.40
2021,01,30,11,01,163.70
2021,01,30,11,02,158.60
2021,01,30,11,03,151.70
2021,01,30,11,04,139.10
2021,01,30,11,05,128.30
2021,01,30,11,06,118.30
2021,01,30,11,07,111.00
2021,01,30,11,08,113.30
2021,01,30,11,09,117.40
2021,01,30,11,10,113.90
2021,01,30,11,11,112.50
2021,01,30,11,12,107.90
2021,01,30,11,13,101.00
2021,01,30,11,14,101.20
2021,01,30,11,15,103.50
2021,01,30,11,16,104.80
2021,01,30,11,17,109.50
2021,01,30,11,18,113.20
2021,01,30,11,19,114.00
2021,01,30,11,20,111.60
2021,01,30,11,21,104.70
2021,01,30,11,22,102.00
2021,01,30,11,23,103.80
2021,01,30,11,24,106.90
2021,01,30,11,25,106.60
2021,01,30,11,26,102.60
2021,01,30,11,27,94.00
2021,01,30,11,28,94.30
2021,01,30,11,29,100.80
2021,01,30,11,30,102.00
2021,01,30,11,31,97.60
2021,01,30,11,32,94.50
2021,01,30,11,33,94.40
2021,01,30,11,34,98.40
2021,01,30,11,35,105.50
2021,01,30,11,36,114.00
2021,01,30,11,37,120.20
2021,01,30,11,38,130.60
2021,01,30,11,39,137.40
2021,01,30,11,40,144.00
2021,01,30,11,41,141.50
2021,01,30,11,42,135.90
2021,01,30,11,43,137.80
2021,01,30,11,44,141.50
2021,01,30,11,45,140.30
2021,01,30,11,46,134.30
2021,01,30,11,47,131.30
2021,01,30,11,48,128.50
2021,01,30,11,49,127.00
2021,01,30,11,50,127.00
2021,01,30,11,51,135.50
2021,01,30,11,52,146.80
2021,01,30,11,53,169.80
2021,01,30,11,54,177.10
2021,01,30,11,55,170.60
2021,01,30,11,56,169.50
2021,01,30,11,57,173.20
2021,01,30,11,58,178.20
2021,01,30,11,59,184.90
2021,01,30,12,00,208.60
2021,01,30,12,01,219.80
2021,01,30,12,02,264.10
2021,01,30,12,03,258.50
2021,01,30,12,04,215.20
2021,01,30,12,05,190.40
2021,01,30,12,06,190.00
2021,01,30,12,07,189.50
2021,01,30,12,08,186.10
2021,01,30,12,09,182.00
2021,01,30,12,10,176.70
2021,01,30,12,11,171.80
2021,01,30,12,12,165.70
2021,01,30,12,13,160.60
2021,01,30,12,14,148.30
2021,01,30,12,15,146.00
2021,01,30,12,16,146.90
2021,01,30,12,17,148.60
2021,01,30,12,18,158.90
2021,01,30,12,19,187.40
2021,01,30,12,20,166.10
2021,01,30,12,21,182.30
2021,01,30,12,22,157.30
2021,01,30,12,23,159.50
2021,01,30,12,24,162.40
2021,01,30,12,25,159.10
2021,01,30,12,26,156.20
2021,01,30,12,27,161.80
2021,01,30,12,28,160.70
2021,01,30,12,29,165.30
2021,01,30,12,30,171.40
2021,01,30,12,31,175.20
2021,01,30,12,32,177.40
2021,01,30,12,33,195.80
2021,01,30,12,34,179.20
2021,01,30,12,35,185.90
2021,01,30,12,36,179.00
2021,01,30,12,37,177.60
2021,01,30,12,38,176.00
2021,01,30,12,39,177.50
2021,01,30,12,40,182.40
2021,01,30,12,41,180.00
2021,01,30,12,42,186.50
2021,01,30,12,43,189.70
2021,01,30,12,44,195.00
2021,01,30,12,45,210.80
2021,01,30,12,46,204.70
2021,01,30,12,47,199.80
2021,01,30,12,48,194.10
2021,01,30,12,49,198.60
2021,01,30,12,50,192.20
2021,01,30,12,51,201.00
2021,01,30,12,52,205.00
2021,01,30,12,53,206.30
2021,01,30,12,54,202.60
2021,01,30,12,55,201.40
2021,01,30,12,56,193.80
2021,01,30,12,57,188.10
2021,01,30,12,58,183.10
2021,01,30,12,59,183.50
2021,01,30,13,00,182.10
2021,01,30,13,01,176.80
2021,01,30,13,02,174.00
2021,01,30,13,03,175.60
2021,01,30,13,04,182.40
2021,01,30,13,05,192.00
2021,01,30,13,06,200.80
2021,01,30,13,07,202.00
2021,01,30,13,08,202.00
2021,01,30,13,09,183.20
2021,01,30,13,10,189.60
2021,01,30,13,11,176.20
2021,01,30,13,12,169.00
2021,01,30,13,13,216.80
2021,01,30,13,14,274.10
2021,01,30,13,15,290.60
2021,01,30,13,16,218.90
2021,01,30,13,17,207.20
2021,01,30,13,18,199.20
2021,01,30,13,19,205.50
2021,01,30,13,20,196.80
2021,01,30,13,21,185.40
2021,01,30,13,22,208.40
2021,01,30,13,23,178.80
2021,01,30,13,24,160.30
2021,01,30,13,25,158.80
2021,01,30,13,26,158.30
2021,01,30,13,27,154.10
2021,01,30,13,28,155.30
2021,01,30,13,29,155.90
2021,01,30,13,30,162.10
2021,01,30,13,31,166.20
2021,01,30,13,32,171.00
2021,01,30,13,33,171.00
2021,01,30,13,34,169.80
2021,01,30,13,35,169.00
2021,01,30,13,36,165.60
2021,01,30,13,37,157.20
2021,01,30,13,38,151.50
2021,01,30,13,39,142.90
2021,01,30,13,40,118.50
2021,01,30,13,41,94.40
2021,01,30,13,42,74.90
2021,01,30,13,43,58.50
2021,01,30,13,44,53.00
2021,01,30,13,45,54.60
2021,01,30,13,46,61.90
2021,01,30,13,47,68.40
2021,01,30,13,48,73.20
2021,01,30,13,49,65.20
2021,01,30,13,50,62.80
2021,01,30,13,51,63.70
2021,01,30,13,52,71.30
2021,01,30,13,53,65.00
2021,01,30,13,54,58.00
2021,01,30,13,55,49.60
2021,01,30,13,56,38.90
2021,01,30,13,57,44.60
2021,01,30,13,58,54.20
2021,01,30,13,59,55.50
2021,01,30,14,00,54.00
2021,01,30,14,01,57.70
2021,01,30,14,02,62.00
2021,01,30,14,03,62.70
2021,01,30,14,04,68.90
2021,01,30,14,05,75.30
2021,01,30,14,06,69.30
2021,01,30,14,07,62.50
2021,01,30,14,08,54.00
2021,01,30,14,09,57.70
2021,01,30,14,10,62.30
2021,01,30,14,11,68.10
2021,01,30,14,12,83.80
2021,01,30,14,13,90.20
2021,01,30,14,14,94.80
2021,01,30,14,15,103.40
2021,01,30,14,16,98.80
2021,01,30,14,17,86.20
2021,01,30,14,18,91.80
2021,01,30,14,19,100.80
2021,01,30,14,20,94.10
2021,01,30,14,21,89.20
2021,01,30,14,22,83.70
2021,01,30,14,23,79.80
2021,01,30,14,24,76.80
2021,01,30,14,25,76.80
2021,01,30,14,26,73.50
2021,01,30,14,27,68.40
2021,01,30,14,28,63.00
2021,01,30,14,29,59.80
2021,01,30,14,30,60.20
2021,01,30,14,31,63.00
2021,01,30,14,32,63.00
2021,01,30,14,33,70.70
2021,01,30,14,34,77.20
2021,01,30,14,35,86.80
2021,01,30,14,36,111.30
2021,01,30,14,37,151.40
2021,01,30,14,38,178.70
2021,01,30,14,39,190.60
2021,01,30,14,40,195.70
2021,01,30,14,41,217.70
2021,01,30,14,42,238.20
2021,01,30,14,43,264.60
2021,01,30,14,44,247.00
2021,01,30,14,45,210.10
2021,01,30,14,46,168.70
2021,01,30,14,47,174.50
2021,01,30,14,48,224.30
2021,01,30,14,49,183.70
2021,01,30,14,50,146.00
2021,01,30,14,51,150.40
2021,01,30,14,52,164.60
2021,01,30,14,53,157.70
2021,01,30,14,54,150.70
2021,01,30,14,55,134.00
2021,01,30,14,56,144.00
2021,01,30,14,57,160.50
2021,01,30,14,58,139.40
2021,01,30,14,59,120.40
2021,01,30,15,00,125.60
2021,01,30,15,01,140.80
2021,01,30,15,02,135.40
2021,01,30,15,03,135.80
2021,01,30,15,04,140.90
2021,01,30,15,05,130.70
2021,01,30,15,06,133.00
2021,01,30,15,07,142.60
2021,01,30,15,08,123.60
2021,01,30,15,09,111.20
2021,01,30,15,10,105.00
2021,01,30,15,11,101.30
2021,01,30,15,12,93.30
2021,01,30,15,13,88.70
2021,01,30,15,14,80.10
2021,01,30,15,15,68.60
2021,01,30,15,16,60.20
2021,01,30,15,17,51.50
2021,01,30,15,18,46.50
2021,01,30,15,19,46.60
2021,01,30,15,20,44.80
2021,01,30,15,21,39.80
2021,01,30,15,22,37.20
2021,01,30,15,23,40.20
2021,01,30,15,24,42.50
2021,01,30,15,25,41.90
2021,01,30,15,26,47.10
2021,01,30,15,27,57.00
2021,01,30,15,28,66.20
2021,01,30,15,29,66.80
2021,01,30,15,30,65.50
2021,01,30,15,31,68.00
2021,01,30,15,32,72.90
2021,01,30,15,33,76.60
2021,01,30,15,34,77.00
2021,01,30,15,35,77.00
2021,01,30,15,36,76.90
2021,01,30,15,37,73.00
2021,01,30,15,38,59.40
2021,01,30,15,39,53.50
2021,01,30,15,40,60.80
2021,01,30,15,41,81.60
2021,01,30,15,42,99.80
2021,01,30,15,43,103.70
2021,01,30,15,44,90.00
2021,01,30,15,45,66.70
2021,01,30,15,46,44.40
2021,01,30,15,47,27.60
2021,01,30,15,48,15.00
2021,01,30,15,49,7.60
2021,01,30,15,50,7.00
2021,01,30,15,51,7.90
2021,01,30,15,52,12.20
2021,01,30,15,53,15.90
2021,01,30,15,54,21.10
2021,01,30,15,55,25.20
2021,01,30,15,56,32.20
2021,01,30,15,57,36.80
2021,01,30,15,58,36.50
2021,01,30,15,59,33.10
2021,01,30,16,00,27.60
2021,01,30,16,01,26.80
2021,01,30,16,02,29.50
2021,01,30,16,03,30.00
2021,01,30,16,04,32.00
2021,01,30,16,05,32.20
2021,01,30,16,06,33.00
2021,01,30,16,07,33.00
2021,01,30,16,08,34.20
2021,01,30,16,09,35.00
2021,01,30,16,10,33.30
2021,01,30,16,11,30.00
2021,01,30,16,12,30.00
2021,01,30,16,13,30.00
2021,01,30,16,14,29.10
2021,01,30,16,15,28.00
2021,01,30,16,16,26.50
2021,01,30,16,17,25.10
2021,01,30,16,18,25.20
2021,01,30,16,19,28.50
2021,01,30,16,20,30.00
2021,01,30,16,21,30.00
2021,01,30,16,22,28.80
2021,01,30,16,23,26.50
2021,01,30,16,24,26.00
2021,01,30,16,25,24.80
2021,01,30,16,26,22.50
2021,01,30,16,27,21.00
2021,01,30,16,28,21.00
2021,01,30,16,29,19.80
2021,01,30,16,30,19.00
2021,01,30,16,31,19.00
2021,01,30,16,32,18.90
2021,01,30,16,33,18.00
2021,01,30,16,34,18.00
2021,01,30,16,35,18.00
2021,01,30,16,36,18.00
2021,01,30,16,37,18.00
2021,01,30,16,38,16.20
2021,01,30,16,39,16.00
2021,01,30,16,40,16.00
2021,01,30,16,41,16.00
2021,01,30,16,42,15.10
2021,01,30,16,43,14.00
2021,01,30,16,44,14.00
2021,01,30,16,45,14.00
2021,01,30,16,46,12.10
2021,01,30,16,47,12.00
2021,01,30,16,48,11.60
2021,01,30,16,49,11.00
2021,01,30,16,50,11.00
2021,01,30,16,51,9.50
2021,01,30,16,52,9.00
2021,01,30,16,53,7.00
2021,01,30,16,54,7.00
2021,01,30,16,55,6.30
2021,01,30,16,56,5.00
2021,01,30,16,57,5.00
2021,01,30,16,58,5.00
2021,01,30,16,59,5.00
2021,01,30,17,00,0.00
2021,01,30,17,01,0.00
2021,01,30,17,02,0.00
2021,01,30,17,03,0.00
2021,01,30,17,04,0.00
2021,01,30,17,05,0.00
2021,01,30,17,06,0.00
2021,01,30,17,07,0.00
2021,01,30,17,08,0.00
2021,01,30,17,09,0.00
2021,01,30,17,10,0.00
2021,01,30,17,11,0.00
2021,01,30,17,12,0.00
2021,01,30,17,13,0.00
2021,01,30,17,14,0.00
2021,01,30,17,15,0.00
2021,01,30,17,16,0.00
2021,01,30,17,17,0.00
2021,01,30,17,18,0.00
2021,01,30,17,19,0.00
2021,01,30,17,20,0.00
2021,01,30,17,21,0.00
2021,01,30,17,22,0.00
2021,01,30,17,23,0.00
2021,01,30,17,24,0.00
2021,01,30,17,25,0.00
2021,01,30,17,26,0.00
2021,01,30,17,27,0.00
2021,01,30,17,28,0.00
2021,01,30,17,29,0.00
2021,01,30,17,30,0.00
2021,01,30,17,31,0.00
2021,01,30,17,32,0.00
2021,01,30,17,33,0.00